Location: Izdebno
(52.6670°N, 16.2170°E)
Time: 13:00:32
(UTC+02:00)

A-11 Canister half - Pass Details

Date: 28 February 2024
Orbit: 1525 x 1683 km, 47.3° (Epoch: 24 April)

Event Time Altitude Azimuth Distance (km) Brightness Sun altitude
Rises 20:16:03 0° 228° (SW) 4,779 11.9 -25.4°
Reaches altitude 10° 20:19:18 10° 222° (SW) 3,774 11.3 -25.8°
Maximum altitude 20:28:11 46° 154° (SSE) 1,981 9.2 -27.1°
Enters shadow 20:28:59 45° 140° (SE) 1,999 9.1 -27.2°
